Location: Riedlingen
(48.1569°N, 9.4757°E)
Time: 23:44:32
(UTC+01:00)

ISS - Visible Passes

Search period start: 21 January 2018 00:00
Search period end: 31 January 2018 00:00
Orbit: 402 x 407 km, 51.6° (Epoch: 22 January)

Date Brightness Start Highest point End Pass type
(mag) Time Alt. Az. Time Alt. Az. Time Alt. Az.
25 Jan -1.0 19:45:46 10° SW 19:46:17 14° SW 19:46:17 14° SW visible
26 Jan -2.3 18:53:57 10° SSW 18:56:24 24° SSE 18:56:24 24° SSE visible
27 Jan -1.7 18:02:35 10° S 18:04:30 15° SE 18:06:25 10° E visible
27 Jan -2.1 19:37:15 10° WSW 19:39:06 31° SW 19:39:06 31° SW visible
28 Jan -3.4 18:45:03 10° SW 18:48:12 46° SSE 18:49:02 36° ESE visible
28 Jan -0.3 20:21:28 10° W 20:21:42 11° W 20:21:42 11° W visible
29 Jan -2.5 17:53:04 10° SSW 17:55:56 28° SE 17:58:48 10° E visible
29 Jan -3.0 19:28:59 10° WSW 19:31:34 50° WNW 19:31:34 50° WNW visible
30 Jan -3.9 18:36:33 10° WSW 18:39:48 85° SSE 18:41:23 28° ENE visible
30 Jan -0.7 20:13:20 10° WNW 20:14:02 15° WNW 20:14:02 15° WNW visible
